Regional Weather Roundup
Issued by NWS

Home | Current Version | Previous Version | Text Only | Print | Product List | Glossary Off
Versions: 1 2 3 4 5 6 7 8 9 10 11 12 13 14 15 16 17 18 19 20 21 22 23 24 25 26 27 28 29 30 31 32 33 34 35 36 37 38 39 40 41 42 43 44 45 46 47 48 49 50

000
ASUS45 KPSR 082310
RWRAZ

ARIZONA HOURLY REGIONAL WEATHER ROUNDUP
NATIONAL WEATHER SERVICE PHOENIX AZ
400 PM MST MON FEB 08 2016

NOTE: FAIR INDICATES FEW OR NO CLOUDS BELOW 12,000 FEET WITH NO
SIGNIFICANT WEATHER AND/OR OBSTRUCTIONS TO VISIBILITY.

AZZ001>003-036-090000-
NORTHWEST ARIZONA

CITY           SKY/WX    TMP DP  RH WIND       PRES   REMARKS
BULLHEAD CITY  SUNNY     73  23  15 N29G39    30.20F
KINGMAN        SUNNY     68  20  16 N9        30.30F
$$

AZZ004>008-015-016-018-090000-
NORTH CENTRAL ARIZONA

CITY           SKY/WX    TMP DP  RH WIND       PRES   REMARKS
GRAND CANYON   SUNNY     53  20  27 NE16G23   30.48R
WILLIAMS       SUNNY     57  21  24 NE12      30.48R
PRESCOTT       SUNNY     70  13  11 N13       30.32F
FLAGSTAFF      SUNNY     50  16  25 NE21      30.43F
PAYSON         SUNNY     64  14  14 NE14      30.34R
PAGE           SUNNY     50  25  37 NE5       30.46F
$$

AZZ009>014-017-090000-
NORTHEAST ARIZONA

CITY           SKY/WX    TMP DP  RH WIND       PRES   REMARKS
WINSLOW        SUNNY     58  19  22 VRB6      30.42F
SAINT JOHNS    SUNNY     56  18  22 NW13      30.38F
WINDOW ROCK    SUNNY     54   0  11 E7        30.41R
SHOW LOW       SUNNY     50  19  29 N9        30.42S
$$

AZZ023-090000-
GREATER PHOENIX AREA

CITY           SKY/WX    TMP DP  RH WIND       PRES   REMARKS
PHOENIX        SUNNY     85  18   8 E6        30.08F
BUCKEYE        SUNNY     79  23  12 SW3       30.13F
GLENDALE       SUNNY     82  25  12 SW5       30.11F
LUKE AFB       SUNNY     82  24  12 S5        30.09F
DEER VALLEY    SUNNY     81  21  11 CALM      30.10F
SCOTTSDALE     SUNNY     81  19  10 CALM      30.12F
MESA-GATEWAY   SUNNY     81  21  11 CALM      30.11F
CHANDLER       SUNNY     82  19   9 CALM      30.10F
$$

AZZ027-028-090000-
SOUTHWEST MARICOPA COUNTY AND PINAL COUNTY

CITY           SKY/WX    TMP DP  RH WIND       PRES   REMARKS
CASA GRANDE    SUNNY     81  25  12 NE12G17   30.11F
GILA BEND      SUNNY     82  20  10 N12       30.08F
$$

AZZ503-504-507>509-090000-
SOUTHEAST ARIZONA

CITY           SKY/WX    TMP DP  RH WIND       PRES   REMARKS
TUCSON         SUNNY     81  15   8 E10       30.13F
DAVIS-MONTHAN  SUNNY     80  17   9 NE6       30.12S
RYAN FIELD     SUNNY     82  23  11 E12       30.12F
NOGALES        SUNNY     78  14   9 MISG      30.16S
SIERRA VISTA   SUNNY     71  12  10 E8        30.23F
DOUGLAS        SUNNY     72  17  12 E16       30.21F
SAFFORD        SUNNY     72  20  14 SE6       30.21F
$$

AZZ020-021-025-026-031-090000-
SOUTHWEST ARIZONA

CITY           SKY/WX    TMP DP  RH WIND       PRES   REMARKS
YUMA           SUNNY     82  20  10 N18G24    30.11S
$$

CAZ031-033-041-043-047-048-061-090000-
SOUTHERN CALIFORNIA

CITY           SKY/WX    TMP DP  RH WIND       PRES   REMARKS
DOWNTOWN L.A.  SUNNY     87  22   9 CALM      30.06F
L.A. AIRPORT   SUNNY     83  27  13 W12       30.07F
SAN DIEGO      SUNNY     82  21  10 NW10      30.07F
BURBANK        SUNNY     86  23  10 NW10      30.09F
ONTARIO        SUNNY     85  20   9 E13       30.09F
RIVERSIDE      SUNNY     82  20  10 NE14G28   30.12F
PALM SPRINGS   SUNNY     82  21  10 VRB5      30.18F
EL CENTRO NAS  SUNNY     82  17   9 NW10      30.15F
IMPERIAL       SUNNY     82  21  10 NW8       30.12F
BLYTHE         SUNNY     82  20  10 N14       30.14F
NEEDLES        SUNNY     77  22  13 N21       30.21F
$$

NVZ020-UTZ003-090000-
SOUTHERN NEVADA-UTAH

CITY           SKY/WX    TMP DP  RH WIND       PRES   REMARKS
LAS VEGAS      SUNNY     72  23  16 NE10      30.30F
SALT LAKE CITY SUNNY     38  28  67 NW8       30.63F HAZE    WCI  32
$$

NMZ009-TXZ055-090000-
NEW MEXICO-WEST TEXAS

CITY           SKY/WX    TMP DP  RH WIND       PRES   REMARKS
ALBUQUERQUE    MOSUNNY   57  18  21 N16       30.34S
EL PASO        MOSUNNY   61  15  16 CALM      30.29F
$$


........................KEY........................
SKY/WX - SKY CONDITION/WEATHER
TMP    - TEMPERATURE IN FAHRENHEIT
DP     - DEW POINT IN FAHRENHEIT
RH     - RELATIVE HUMIDITY IN PERCENT
WIND   - DIRECTION AND SPEED IN MILES PER HOUR (MPH)
VRB    - VARIABLE WIND DIRECTION
PRES   - MEAN SEA LEVEL PRESSURE IN INCHES OF MERCURY
         F - FALLING PRESSURE   R - RISING PRESSURE
         S - STEADY PRESSURE
VSB    - VISIBILITY IN MILES
HX     - HEAT INDEX IN FAHRENHEIT
WCI    - WIND CHILL INDEX IN FAHRENHEIT
TC     - TEMPERATURE IN CELSIUS WHICH IS ALSO KNOWN AS
         TEMPERATURE IN CENTIGRADE
AFB    - AIR FORCE BASE
         LUKE AFB IS LUKE AIR FORCE BASE
         DAVIS-MONTHAN IS DAVIS-MONTHAN AIR FORCE BASE
NAS    - NAVAL AIR STATION
         EL CENTRO NAS IS EL CENTRO NAVAL AIR STATION
N/A    - NOT AVAILABLE




USA.gov is the U.S. government's official web portal to all federal, state and local government web resources and services.